Wind_Speed
24 25 26 27 27 28 28 29 29 30 30 31 31 32 32 34 35 35 35 35 34 34 35 36 36 36 37 37 37 37 38 38 38 38 39 40 41 42 44 46 47 48 49
26 26 26 28 28 28 29 29 29 30 31 31 31 32 33 34 35 35 35 34 34 35 36 36 36 37 37 37 37 37 38 38 39 39 39 41 42 43 45 47 48 48 49
28 28 28 29 29 29 30 30 30 30 30 31 33 33 34 35 35 35 34 35 35 36 36 36 36 37 37 37 37 38 39 39 40 40 41 42 43 45 47 48 49 49 49
28 29 29 29 29 30 31 31 30 30 31 32 33 34 35 35 35 35 34 34 35 35 36 37 37 37 37 38 38 39 40 40 41 42 42 44 45 47 48 49 49 49 49
29 30 29 30 30 31 32 32 32 32 32 33 34 35 35 35 34 34 35 35 36 36 37 37 38 38 38 39 40 40 41 42 43 43 44 45 47 48 49 49 49 49 49
30 30 30 30 31 32 32 32 33 33 33 34 34 35 35 35 34 35 36 37 37 38 38 38 38 39 39 40 41 42 43 43 44 46 46 47 48 49 49 50 50 49 49
31 31 31 31 31 32 32 33 34 34 34 35 34 35 36 36 36 37 37 38 38 38 38 38 38 39 40 41 42 43 44 45 46 46 47 48 49 49 50 50 49 49 49
32 32 32 31 31 32 32 34 34 35 35 35 36 37 38 37 38 38 38 39 39 39 39 40 40 40 40 41 42 43 44 45 46 47 48 49 50 50 49 48 48 49 49
33 33 33 33 33 34 34 35 35 35 36 36 37 38 38 38 38 39 40 40 40 40 40 40 41 40 41 42 43 43 44 45 46 47 48 48 49 48 48 48 49 49 48
34 34 34 34 35 35 36 37 37 37 37 38 39 38 38 39 39 39 39 39 40 40 40 41 41 41 42 42 43 44 44 45 46 46 47 48 48 48 48 49 49 49 49
36 35 35 36 36 37 38 38 38 38 39 39 39 39 39 39 39 39 39 40 40 41 41 41 42 42 43 43 44 44 44 45 46 47 48 48 48 48 49 49 50 49 49
38 38 38 38 38 38 39 39 39 38 38 38 39 39 39 39 39 40 40 41 41 42 42 43 43 43 43 45 45 44 44 46 47 48 48 48 49 49 49 49 50 50 51
39 40 40 40 40 39 39 39 38 38 38 38 39 38 38 38 39 40 40 41 42 42 43 44 44 44 45 46 45 45 46 47 47 48 49 49 49 49 49 49 50 51 51
41 42 42 42 41 40 39 39 38 38 38 38 38 38 39 39 39 40 41 41 42 42 43 44 45 46 47 46 46 46 46 47 48 49 50 50 50 50 50 50 51 51 50
43 43 43 42 41 41 40 40 40 39 39 39 39 39 39 40 41 41 42 43 43 44 44 45 46 47 47 47 46 46 47 48 49 50 50 50 50 50 51 51 51 50 50
44 44 44 43 43 42 41 41 41 41 40 40 40 41 41 42 42 42 43 44 44 45 45 46 46 46 47 46 46 47 48 49 50 50 51 51 50 50 51 51 51 50 49
45 45 45 45 44 43 43 43 43 43 43 43 42 42 43 43 43 44 44 45 46 46 46 46 47 47 47 47 47 48 49 50 51 51 51 51 51 51 51 50 48 48 47
46 46 47 46 46 46 45 45 45 45 45 45 44 44 44 44 45 45 45 45 46 46 47 47 47 48 48 48 48 49 50 51 51 51 51 51 51 50 50 48 46 46 46
48 48 48 48 48 47 47 47 47 47 47 47 47 46 46 46 46 46 47 47 47 47 48 48 48 48 48 49 49 50 51 51 51 51 51 51 50 49 48 46 45 45 45
50 49 49 49 49 49 49 49 48 48 48 48 48 47 47 47 47 46 47 47 48 47 47 48 49 49 50 50 50 51 51 51 51 51 51 50 49 48 46 45 44 44 44
49 49 49 48 48 48 48 48 48 48 48 48 48 48 48 48 48 48 48 48 48 48 49 49 50 51 51 50 51 51 51 51 51 51 51 50 48 46 45 44 43 43 42
48 48 48 47 47 47 48 47 47 47 47 48 48 48 49 49 50 50 50 49 49 49 50 51 52 52 52 51 51 51 50 50 50 49 48 47 45 44 43 42 41 41 40
48 48 47 47 47 46 46 46 46 46 47 47 48 49 49 50 50 50 50 50 50 50 51 51 52 52 52 51 50 50 49 49 48 47 45 43 42 41 41 40 39 39 38
46 46 46 46 46 46 46 46 46 47 47 47 48 49 49 49 49 49 49 49 50 50 51 51 51 50 50 49 49 49 49 48 47 45 42 41 41 40 39 38 38 38 37
43 43 44 44 45 45 45 46 46 46 46 47 47 47 48 48 47 48 48 49 50 50 50 51 51 49 48 48 48 47 46 46 44 42 40 40 39 38 37 37 37 37 36
43 43 43 43 44 44 45 45 46 46 46 47 47 47 47 47 47 47 48 49 49 50 50 50 49 48 46 46 45 45 44 43 42 40 39 39 38 37 37 36 36 35 35
Wind_Direction
292 292 291 292 294 295 294 294 291 289 289 291 291 292 293 294 294 294 294 294 294 295 295 296 297 297 298 299 298 297 297 297 298 298 298 298 298 298 297 297 296 296 295
291 291 291 291 293 295 295 294 293 291 290 290 291 292 294 295 295 294 294 294 295 296 296 296 296 297 297 297 297 297 297 298 299 299 300 299 299 299 299 298 298 298 297
291 292 292 292 293 294 295 294 294 292 290 290 292 292 294 294 294 295 295 295 295 296 295 295 295 296 297 297 297 297 297 298 299 299 300 300 300 300 300 300 299 299 298
292 293 293 293 294 295 296 295 293 291 290 290 293 293 294 295 295 295 294 294 295 296 295 294 295 297 298 297 297 296 296 297 299 299 300 301 301 301 301 301 300 299 299
292 293 294 294 293 294 295 295 293 292 292 293 295 294 295 296 295 295 295 295 295 296 296 296 297 298 297 296 296 296 297 298 299 300 301 302 302 302 302 301 301 300 299
292 293 294 294 294 294 294 295 294 295 295 295 295 295 296 297 296 295 295 296 297 298 298 297 298 297 296 295 295 297 298 299 300 300 301 302 303 303 302 302 301 301 300
290 292 294 294 295 295 294 294 294 293 294 294 295 295 297 297 296 296 296 297 298 299 299 298 298 298 297 297 297 298 299 299 300 301 302 303 303 303 303 303 303 303 302
290 291 293 294 295 296 297 296 294 294 294 294 296 296 297 297 297 297 297 297 298 298 299 299 299 299 299 299 298 299 299 301 302 303 304 304 304 304 304 305 305 305 305
290 290 291 292 294 296 297 296 296 295 295 296 296 296 296 297 298 298 297 297 297 298 300 301 301 300 300 299 300 301 302 303 303 304 305 305 306 306 306 306 306 306 306
290 290 290 291 293 294 296 295 295 294 295 296 296 296 296 296 297 297 297 298 298 298 300 301 302 301 300 300 301 302 303 303 304 305 306 307 307 306 306 306 307 307 307
288 289 290 291 292 293 294 294 294 294 295 296 296 296 296 295 295 296 296 297 298 298 299 300 301 301 301 302 303 303 303 304 304 306 307 307 306 306 306 307 307 307 307
287 288 289 291 292 292 292 293 293 294 294 295 296 296 295 295 295 296 296 296 297 298 298 299 300 301 302 302 303 303 304 305 306 306 306 306 306 306 306 307 307 307 307
287 288 289 289 290 291 292 292 293 294 294 294 294 295 295 295 296 297 296 296 298 298 298 299 300 301 302 302 303 303 305 306 306 306 306 306 306 306 306 306 307 307 307
286 287 288 289 289 290 291 291 292 292 293 293 293 294 295 296 297 297 297 298 298 299 299 300 301 301 302 302 302 303 305 306 307 306 306 306 305 306 306 307 307 307 306
286 288 288 288 288 289 290 290 291 291 291 291 292 293 294 296 297 298 298 299 299 299 299 300 301 302 303 303 302 303 305 306 306 306 306 306 305 305 306 306 307 306 306
286 286 286 287 287 287 288 289 289 290 290 290 290 292 293 295 297 297 298 299 300 300 300 300 301 302 303 302 302 302 304 304 305 305 306 306 305 305 306 306 306 306 306
284 284 285 286 286 285 286 287 288 288 289 289 289 290 291 294 295 296 297 298 299 300 300 300 301 302 303 303 303 303 304 304 305 305 306 306 305 305 305 306 306 307 307
282 283 284 284 284 284 284 285 286 287 288 289 289 289 290 292 294 295 296 297 298 299 300 300 301 302 303 304 304 304 304 305 305 305 306 306 306 305 305 305 306 307 307
281 282 283 283 283 284 284 284 285 286 287 288 288 289 290 291 292 294 295 296 298 299 300 301 302 303 303 304 304 304 305 305 305 305 306 307 306 306 306 305 306 307 307
280 281 281 282 283 283 284 284 284 285 286 287 288 288 289 290 291 293 295 296 297 298 299 301 302 303 304 304 304 305 305 305 305 305 305 306 306 306 306 305 306 307 308
279 279 280 280 282 283 283 284 284 284 285 287 288 288 288 289 290 292 294 295 296 297 298 300 301 303 303 302 303 304 305 305 305 305 305 305 306 305 305 305 306 307 308
278 279 280 281 282 283 283 283 283 284 285 286 288 288 289 289 291 292 293 294 295 296 298 299 301 302 302 302 303 304 305 305 305 305 305 305 306 305 305 305 306 307 308
278 279 280 281 282 282 283 284 285 286 287 288 289 290 291 291 291 291 292 293 294 295 297 298 300 302 302 302 303 304 305 306 306 306 305 304 305 305 304 305 306 307 307
278 278 279 280 281 281 282 284 285 287 288 289 290 291 292 293 293 292 292 292 293 295 297 299 300 301 301 302 303 304 305 306 306 306 305 304 304 304 303 304 304 305 305
278 279 279 280 281 282 283 283 285 286 288 289 290 291 292 293 293 293 293 293 294 295 297 298 299 300 301 302 303 304 305 305 306 305 305 305 305 304 304 304 304 305 305
278 278 279 280 281 283 283 284 285 286 288 290 291 292 293 293 294 294 294 295 295 296 297 299 300 301 301 302 303 304 304 304 304 304 305 306 306 304 303 303 304 305 305
Height
5687 5684 5681 5678 5675 5672 5669 5666 5663 5660 5657 5654 5651 5648 5645 5642 5639 5636 5633 5629 5626 5623 5620 5616 5613 5609 5605 5601 5597 5594 5590 5586 5583 5580 5575 5570 5565 5561 5556 5551 5546 5540 5535
5681 5677 5674 5671 5668 5665 5662 5659 5655 5652 5649 5646 5643 5641 5637 5634 5631 5627 5624 5621 5617 5614 5611 5607 5603 5600 5596 5592 5588 5584 5580 5576 5573 5569 5565 5560 5555 5550 5544 5539 5533 5527 5521
5674 5670 5667 5664 5661 5658 5655 5651 5648 5644 5642 5639 5635 5632 5629 5626 5622 5618 5615 5612 5609 5605 5602 5598 5594 5590 5586 5582 5578 5575 5571 5566 5562 5558 5554 5549 5544 5538 5533 5527 5520 5514 5508
5667 5663 5660 5656 5653 5650 5647 5643 5640 5637 5634 5631 5627 5624 5621 5617 5613 5609 5606 5603 5599 5596 5592 5588 5585 5581 5577 5573 5569 5565 5560 5556 5552 5547 5543 5538 5533 5526 5520 5514 5508 5502 5495
5659 5656 5652 5649 5645 5642 5639 5635 5632 5629 5625 5622 5619 5616 5612 5608 5604 5601 5597 5594 5590 5587 5583 5579 5575 5571 5566 5562 5558 5554 5550 5545 5541 5536 5531 5526 5520 5514 5508 5501 5495 5489 5483
5651 5648 5645 5641 5638 5634 5631 5627 5624 5620 5617 5614 5610 5607 5603 5600 5595 5591 5588 5584 5581 5577 5573 5569 5565 5560 5556 5552 5547 5543 5539 5534 5529 5524 5519 5513 5507 5500 5494 5487 5481 5476 5471
5643 5640 5636 5633 5629 5626 5622 5619 5615 5612 5608 5605 5601 5598 5594 5590 5586 5582 5578 5574 5571 5567 5563 5558 5554 5549 5545 5541 5536 5532 5527 5522 5517 5511 5505 5499 5493 5487 5481 5475 5467 5460 5455
5634 5631 5628 5624 5621 5617 5613 5610 5606 5603 5599 5596 5592 5589 5585 5581 5576 5572 5568 5564 5560 5556 5552 5548 5543 5538 5534 5530 5525 5520 5515 5510 5504 5498 5492 5486 5479 5472 5466 5460 5453 5447 5441
5625 5622 5619 5615 5612 5608 5605 5601 5597 5593 5590 5586 5582 5578 5574 5571 5566 5562 5557 5553 5549 5545 5541 5537 5532 5527 5523 5519 5514 5509 5504 5498 5491 5485 5479 5472 5465 5459 5452 5446 5439 5433 5427
5615 5612 5609 5605 5602 5599 5595 5591 5588 5584 5580 5576 5572 5568 5564 5560 5556 5552 5547 5543 5539 5535 5530 5526 5521 5516 5511 5506 5501 5497 5492 5486 5479 5473 5466 5460 5453 5446 5439 5432 5425 5418 5412
5605 5602 5599 5595 5592 5588 5585 5581 5577 5573 5569 5566 5562 5558 5553 5549 5545 5541 5536 5532 5528 5523 5519 5515 5510 5505 5500 5495 5489 5484 5479 5473 5467 5461 5454 5447 5441 5433 5426 5419 5411 5404 5397
5595 5592 5588 5585 5581 5578 5574 5570 5566 5562 5558 5554 5550 5546 5542 5538 5534 5530 5525 5521 5516 5512 5507 5503 5498 5493 5488 5483 5477 5472 5467 5461 5455 5448 5442 5435 5428 5421 5414 5406 5398 5391 5384
5583 5580 5577 5574 5570 5567 5563 5559 5555 5551 5547 5543 5539 5536 5532 5527 5523 5519 5514 5509 5505 5500 5495 5491 5486 5481 5476 5471 5465 5460 5454 5448 5442 5435 5429 5422 5415 5408 5401 5393 5386 5378 5371
5571 5568 5565 5562 5559 5555 5551 5548 5544 5540 5536 5532 5528 5525 5521 5517 5512 5508 5503 5498 5493 5488 5483 5479 5474 5469 5463 5458 5453 5447 5441 5435 5428 5422 5416 5409 5401 5394 5387 5380 5373 5365 5358
5558 5555 5552 5549 5546 5543 5540 5536 5532 5529 5525 5521 5517 5513 5510 5506 5501 5496 5491 5486 5481 5476 5471 5466 5461 5456 5451 5445 5439 5433 5427 5421 5415 5408 5401 5395 5388 5381 5373 5366 5359 5351 5344
5545 5542 5539 5536 5534 5530 5527 5524 5520 5517 5513 5509 5505 5501 5497 5493 5489 5484 5479 5474 5469 5464 5459 5454 5448 5443 5438 5432 5426 5420 5414 5407 5400 5394 5387 5380 5373 5367 5360 5352 5344 5337 5330
5531 5528 5525 5523 5520 5517 5514 5511 5508 5504 5500 5496 5492 5488 5484 5480 5476 5471 5466 5461 5456 5451 5446 5440 5435 5430 5424 5418 5412 5406 5400 5393 5386 5379 5372 5365 5358 5352 5345 5338 5330 5324 5317
5517 5514 5511 5508 5506 5503 5500 5497 5494 5490 5487 5483 5479 5475 5471 5466 5462 5458 5453 5448 5443 5438 5432 5427 5421 5416 5410 5404 5397 5391 5385 5379 5372 5365 5358 5351 5344 5337 5330 5323 5317 5311 5304
5502 5499 5496 5493 5491 5488 5485 5482 5479 5476 5472 5469 5465 5461 5456 5452 5448 5443 5438 5434 5429 5424 5419 5413 5407 5401 5395 5389 5383 5377 5371 5364 5358 5351 5344 5337 5330 5323 5316 5310 5304 5298 5292
5486 5484 5481 5478 5475 5473 5470 5467 5464 5460 5457 5453 5449 5446 5441 5437 5433 5429 5424 5419 5414 5409 5404 5399 5393 5387 5381 5375 5369 5362 5356 5350 5343 5337 5330 5323 5316 5309 5303 5297 5291 5286 5280
5470 5467 5465 5462 5460 5457 5453 5450 5447 5444 5441 5437 5434 5430 5426 5422 5418 5414 5410 5405 5400 5395 5389 5384 5379 5373 5366 5360 5354 5348 5342 5335 5329 5322 5316 5309 5302 5296 5289 5284 5278 5273 5267
5454 5451 5449 5447 5444 5441 5438 5435 5432 5429 5425 5422 5419 5415 5411 5407 5403 5399 5394 5389 5384 5380 5375 5369 5364 5358 5352 5346 5340 5333 5327 5320 5314 5308 5301 5295 5289 5283 5277 5272 5266 5261 5256
5438 5436 5434 5431 5429 5426 5423 5420 5417 5414 5411 5407 5404 5400 5396 5392 5387 5383 5379 5374 5369 5364 5359 5354 5349 5343 5337 5331 5325 5319 5313 5307 5300 5294 5288 5282 5276 5271 5265 5260 5255 5250 5245
5423 5421 5419 5417 5414 5412 5409 5406 5403 5400 5397 5393 5389 5385 5381 5377 5372 5368 5363 5359 5354 5349 5344 5339 5334 5328 5322 5316 5310 5304 5298 5293 5287 5281 5275 5270 5265 5259 5254 5249 5244 5239 5234
5408 5406 5404 5402 5400 5397 5395 5392 5389 5386 5382 5379 5375 5371 5366 5362 5357 5353 5349 5344 5340 5335 5330 5324 5319 5313 5308 5302 5296 5291 5285 5280 5274 5269 5263 5258 5253 5248 5243 5238 5234 5229 5224
5394 5392 5390 5388 5385 5383 5380 5378 5375 5371 5368 5364 5360 5356 5352 5348 5343 5339 5335 5330 5325 5320 5315 5310 5304 5299 5294 5289 5283 5278 5273 5267 5262 5257 5252 5248 5242 5237 5233 5228 5224 5219 5215